パンスターズ彗星

P/2012 G1 ( PanSTARRS )

English version
Home page
Updated on August 13, 2012

---------------------------------------------------------------------

・ プロフィール

発見日 2012年4月13日
発見光度 21.1等
発見者 Pan-STARRS 1 telescope (Haleakala)

・ 写真集

・ 軌道要素

T 2012 June 1.43253 TT                                  MPC
q   2.5841656            (2000.0)            P               Q
n   0.11562497     Peri.  286.11485     -0.85803133     +0.47397143
a   4.1728711      Node   282.54401     -0.35860043     -0.82860500
e   0.3807224      Incl.   11.69249     -0.36767917     -0.29793428
P   8.52
From 16 observations 2012 Apr. 13-16.

・ 光度変化

        m1 = 15.0 + 5 logΔ + 10.0 log r

---------------------------------------------------------------------

軌道要素はM.P.E.C. 2012-H17に掲載されたものです。
光度グラフはComet for Windowsで作成したものです。

---------------------------------------------------------------------

Copyright(C) Seiichi Yoshida (comet@aerith.net). All rights reserved.